Location: Unspecified
(0.0000°N, 0.0000°E)
Time: 13:25:58
(UTC+01:00)

Atlas Centaur 2 - Visible Passes

Search period start: 28 February 2015 00:00
Search period end: 10 March 2015 00:00
Orbit: 460 x 1323 km, 30.4° (Epoch: 26 February)

Date Brightness Start Highest point End Pass type
(mag) Time Alt. Az. Time Alt. Az. Time Alt. Az.
28 Feb 5.0 06:25:20 10° NNW 06:30:42 18° NNE 06:36:10 10° ENE visible
28 Feb 2.9 21:08:47 10° WSW 21:10:58 33° WSW 21:10:58 33° WSW visible
01 Mar 4.8 06:22:52 10° NNW 06:29:10 23° NNE 06:35:32 10° ENE visible
01 Mar 2.9 21:07:24 10° WSW 21:09:45 32° W 21:09:45 32° W visible
02 Mar 4.6 06:20:31 10° NNW 06:27:34 29° NNE 06:34:38 10° E visible
02 Mar 3.2 21:06:15 10° W 21:08:34 25° WNW 21:08:34 25° WNW visible
03 Mar 5.1 04:33:44 12° NNE 04:34:54 12° NNE 04:38:03 10° NE visible
03 Mar 4.3 06:18:17 10° NNW 06:25:53 37° NNE 06:33:30 10° E visible
03 Mar 3.6 21:05:22 10° WNW 21:07:25 18° NW 21:07:25 18° NW visible
04 Mar 5.0 04:32:25 15° NNE 04:33:24 15° NNE 04:38:05 10° ENE visible
04 Mar 4.0 06:16:10 10° NW 06:24:08 46° NNE 06:32:11 10° ESE visible
04 Mar 3.9 21:05:05 10° NW 21:06:17 12° NNW 21:06:17 12° NNW visible
05 Mar 4.8 04:31:09 19° NNE 04:31:51 19° NNE 04:37:37 10° ENE visible
05 Mar 3.6 06:14:08 10° NW 06:22:20 58° NNE 06:30:42 10° ESE visible
06 Mar 4.5 04:29:56 24° NNE 04:30:12 24° NNE 04:36:47 10° E visible
06 Mar 3.3 06:12:42 12° NW 06:20:30 74° NNE 06:29:03 10° ESE visible
07 Mar 4.3 04:28:45 30° NE 04:28:45 30° NE 04:35:43 10° E visible
07 Mar 3.1 06:11:32 15° WNW 06:18:39 89° SSW 06:27:18 10° ESE visible
08 Mar 4.0 04:27:36 37° NE 04:27:36 37° NE 04:34:26 10° E visible
08 Mar 3.1 06:10:22 18° WNW 06:16:47 72° SSW 06:25:24 10° SE visible
09 Mar 3.8 04:26:25 43° ENE 04:26:25 43° ENE 04:32:58 10° ESE visible
09 Mar 3.3 06:09:12 20° WNW 06:14:58 56° SSW 06:23:24 10° SE visible
